Theta_e
322 322 323 323 323 322 328 331 331 333 342 341 342 342 342 347 349 340 347 346 341 332 339 342 342 340 339 340 341 338 338 338 332 323 322 320 320 323 324 324 324 325 324 323 323 324 324 323 326
321 321 322 323 322 326 325 328 330 330 345 344 343 344 345 344 347 349 349 351 344 330 335 340 342 340 338 339 341 340 338 339 333 327 321 320 320 321 322 323 324 324 322 322 323 324 324 323 324
320 320 322 319 320 324 326 329 329 329 345 346 347 346 345 345 350 347 345 349 339 328 333 339 340 339 337 338 340 341 339 339 336 329 323 321 320 322 323 323 324 323 322 322 323 323 323 323 322
320 322 322 320 323 324 328 328 328 329 334 343 343 348 346 348 348 350 348 347 337 328 334 337 337 336 334 336 339 341 340 339 337 331 325 322 321 321 323 324 324 322 322 322 322 323 322 322 322
320 320 318 321 323 324 326 328 329 330 335 347 346 344 344 349 350 351 350 348 345 328 334 337 336 334 333 336 339 341 341 340 337 332 327 323 322 322 322 323 322 322 323 322 322 322 321 321 321
320 318 317 320 321 325 325 328 329 331 335 337 346 343 344 347 350 352 351 346 336 327 335 336 336 333 332 334 337 340 341 340 338 334 328 324 322 322 322 321 321 322 323 322 322 321 320 320 320
317 315 317 319 321 323 326 330 328 327 329 330 344 348 349 350 354 352 351 344 329 330 334 335 335 333 331 332 335 340 341 340 338 335 329 323 321 321 322 322 321 322 323 322 322 321 320 320 320
320 314 319 318 321 323 325 330 331 329 328 349 351 349 348 352 353 352 349 344 333 335 337 338 334 332 330 331 335 338 338 337 335 332 327 322 321 321 322 322 322 322 323 322 322 322 321 320 320
320 314 315 318 320 321 325 328 330 328 329 342 352 349 348 351 351 351 350 349 339 336 339 338 334 332 330 330 333 335 334 333 332 331 326 321 320 321 321 322 322 322 323 323 322 322 322 321 321
316 313 315 317 321 322 324 326 328 327 327 328 349 348 348 348 350 352 351 352 351 344 339 335 333 331 329 329 330 331 331 331 330 329 325 320 320 321 321 322 322 323 323 323 322 322 322 322 322
318 315 316 320 322 322 322 327 326 327 326 327 333 348 347 348 350 352 351 353 352 351 344 336 333 331 330 327 327 327 327 327 327 325 323 320 320 321 321 322 322 323 323 323 323 322 322 322 324
319 319 320 320 321 322 323 325 326 327 327 328 326 341 348 346 345 347 348 349 347 348 347 339 335 331 330 329 327 327 325 324 323 321 321 321 320 321 321 323 326 329 329 334 340 331 327 328 332
316 318 321 320 322 322 324 326 327 327 328 327 327 328 340 345 346 344 345 346 348 345 345 343 339 333 331 331 329 330 332 330 328 326 323 321 321 321 321 323 328 335 334 338 340 341 341 342 337
316 317 319 321 322 322 325 326 326 328 328 327 327 328 328 330 338 343 342 339 340 339 342 343 344 342 340 341 343 344 346 340 332 340 336 331 330 327 323 324 329 333 338 339 343 343 342 341 341
317 316 317 319 321 320 325 327 328 328 329 329 328 328 328 327 330 331 343 341 340 341 341 342 343 343 344 344 350 348 346 347 346 346 346 347 347 346 342 330 329 335 342 342 342 345 347 344 346
314 315 317 319 321 327 326 326 327 328 329 329 328 328 327 326 326 328 340 342 341 341 338 333 339 335 338 346 347 349 349 348 348 348 349 347 347 348 348 348 346 341 344 347 346 344 347 346 346
312 314 315 317 321 327 327 328 326 329 328 328 329 329 327 328 327 328 339 342 345 345 342 337 335 335 335 335 346 347 350 348 348 349 350 349 348 349 349 349 347 348 343 348 348 348 347 346 344
312 313 315 317 323 326 327 328 328 328 327 326 325 328 330 329 327 327 336 341 342 342 337 333 334 335 334 337 348 348 347 352 350 349 349 350 350 351 350 349 348 348 347 346 346 346 345 344 343
313 314 315 323 323 326 325 328 328 328 327 326 326 327 329 329 326 328 327 327 329 332 337 337 337 336 335 332 343 353 350 346 343 343 346 350 352 351 352 351 350 346 343 343 342 344 342 343 342
314 313 314 318 326 326 326 327 326 326 326 327 326 326 328 328 328 331 331 331 330 329 331 336 339 338 338 342 347 349 348 349 347 341 343 346 348 348 350 348 346 341 341 341 336 337 342 337 341
314 314 314 324 324 324 326 328 327 324 324 325 326 324 327 327 328 331 331 331 332 331 330 332 334 334 333 347 349 352 353 353 352 350 348 348 350 347 346 346 345 342 342 336 336 339 338 337 337
314 314 315 322 323 326 323 325 320 321 318 317 321 321 323 325 325 331 332 335 334 334 334 334 333 333 336 333 333 347 349 348 349 348 344 344 346 346 347 345 344 336 330 338 338 339 338 337 338
314 314 314 318 320 321 320 318 314 319 320 317 317 319 321 323 327 332 334 337 338 336 334 331 331 337 340 341 340 337 346 347 347 346 345 347 346 343 341 342 342 336 328 339 341 341 336 338 335
314 314 319 318 318 321 319 321 317 316 319 319 317 319 320 323 333 336 339 339 338 335 329 326 330 338 341 342 345 344 344 344 344 344 345 344 341 341 338 337 336 337 340 343 343 339 338 335 336
314 314 320 321 320 323 317 316 319 315 317 318 317 319 321 326 335 337 336 335 334 330 323 325 329 334 339 341 340 338 338 337 337 335 333 333 333 334 336 336 334 334 338 338 337 336 336 335 334
312 317 319 321 319 317 317 320 319 317 318 319 319 321 323 331 333 333 332 330 325 324 324 323 324 323 324 323 329 329 327 324 322 321 322 323 324 325 326 331 334 334 334 334 333 333 331 331 331
314 316 315 319 320 318 321 323 321 324 321 319 323 325 327 332 331 330 328 325 324 325 324 323 322 321 320 321 320 320 320 319 318 318 317 318 318 318 319 319 320 325 331 331 331 331 331 330 330
313 315 321 320 321 321 327 328 325 326 326 319 322 323 329 330 329 327 325 325 326 326 325 324 323 322 321 320 320 319 318 317 316 316 316 316 316 315 315 315 315 316 317 317 324 327 328 329 329
316 317 316 318 320 324 325 325 326 324 325 321 320 322 324 326 326 325 325 326 326 325 324 323 322 320 319 319 318 318 318 316 316 316 316 315 315 314 313 313 312 312 312 311 312 314 316 318 319
316 315 316 320 325 327 327 326 326 325 325 323 323 324 324 325 325 325 326 326 326 325 323 320 319 319 318 318 318 317 317 317 316 315 315 315 314 312 311 311 311 310 310 310 310 310 310 311 312
Wind_Speed
8 8 10 9 4 4 4 5 2 4 5 7 30 16 16 9 4 5 17 28 28 31 32 30 27 25 24 24 23 21 18 17 16 17 19 20 21 20 19 17 15 14 12 12 11 10 10 10 10
6 7 6 1 4 1 4 6 7 5 12 13 16 8 14 7 11 15 30 25 26 30 32 31 28 26 25 24 23 22 20 17 16 16 17 19 19 18 17 15 13 12 10 10 9 8 8 9 9
6 6 3 3 3 5 4 5 5 17 22 28 10 13 3 4 10 23 17 23 31 29 32 31 29 26 25 25 25 23 20 18 16 15 16 17 18 17 16 14 12 10 9 8 7 7 6 7 7
4 1 2 3 9 5 3 12 13 11 12 10 13 4 9 13 19 18 25 23 27 29 32 31 29 26 25 25 25 24 22 19 15 14 14 15 16 16 15 13 11 9 8 7 6 5 5 5 5
3 2 1 2 9 3 8 12 20 16 4 13 26 5 4 14 20 11 28 27 27 31 32 30 28 26 24 24 24 23 21 20 17 15 13 13 15 15 13 12 10 9 7 6 5 4 3 3 3
3 1 2 4 9 4 8 19 22 17 13 3 10 11 5 6 11 21 26 28 26 31 32 30 27 25 24 23 23 22 21 18 17 14 13 12 12 13 13 11 10 8 7 5 4 2 1 1 1
5 3 5 4 4 5 4 8 7 9 13 9 18 5 7 14 19 25 23 23 27 29 30 30 27 25 23 22 23 22 20 18 16 13 11 11 11 12 12 11 9 8 6 5 4 2 1 0 1
5 3 3 5 3 6 6 9 7 11 12 12 9 7 9 23 22 20 16 16 25 26 27 27 26 25 23 23 22 21 20 19 16 14 12 12 12 12 12 11 9 8 7 6 5 4 3 2 2
5 2 4 6 5 5 18 8 8 17 31 29 12 14 23 27 27 24 22 17 17 18 22 22 22 21 21 22 22 22 20 19 18 16 15 14 14 13 12 11 10 9 8 8 7 7 5 5 3
6 5 8 5 2 5 13 3 2 8 23 25 17 22 23 24 21 23 20 18 16 16 17 21 22 23 23 22 22 22 21 20 18 16 15 14 14 13 12 11 10 10 10 10 9 9 9 7 5
4 6 5 6 5 7 9 2 1 10 8 14 15 12 15 25 20 22 18 19 10 13 19 22 22 22 22 22 22 21 19 19 18 17 15 15 15 15 14 13 13 12 11 11 11 11 11 9 8
2 7 11 6 11 9 4 6 4 12 11 11 16 3 18 24 15 19 19 20 10 3 12 20 21 22 22 20 20 18 17 17 17 16 16 16 17 17 16 15 12 11 9 7 5 9 8 10 8
5 5 13 12 15 15 10 2 3 7 11 12 10 15 5 13 19 21 23 15 13 1 5 13 18 19 19 18 17 15 14 17 15 14 15 15 16 17 16 16 15 10 9 10 8 6 5 4 7
4 21 25 12 15 16 7 3 2 3 9 4 7 7 5 3 11 18 27 32 22 17 14 15 15 19 20 17 13 13 11 12 15 12 12 13 13 15 17 17 15 14 13 13 11 12 14 13 12
21 6 12 12 13 8 12 4 6 5 6 7 7 16 2 3 0 12 19 29 23 24 24 24 22 18 19 20 19 19 19 15 15 14 11 11 11 8 10 16 16 17 14 16 16 14 15 11 8
8 4 11 16 8 9 16 14 5 4 2 2 11 16 17 3 10 6 24 25 23 21 22 26 45 19 11 29 26 25 23 23 19 17 16 16 15 13 13 13 15 17 18 18 18 18 17 16 17
4 8 9 13 11 4 4 3 5 15 7 5 5 12 20 17 12 8 22 29 25 21 21 27 31 38 34 31 28 28 31 27 25 22 21 18 19 20 21 18 18 19 20 22 21 20 19 18 19
8 9 3 14 5 3 4 3 3 5 1 10 14 10 15 15 8 13 16 16 22 24 24 28 29 37 39 34 29 32 35 30 29 31 29 27 24 23 25 25 23 22 23 26 25 24 23 22 22
1 4 9 3 9 6 7 6 6 15 10 12 15 15 11 10 2 18 18 17 15 11 15 22 32 34 33 23 28 33 31 34 33 31 29 30 27 25 24 25 25 25 23 27 29 25 25 25 25
8 6 7 7 7 6 6 8 8 8 10 19 21 14 14 11 11 22 23 22 17 14 12 13 16 17 25 32 31 28 27 26 22 17 15 18 27 25 27 25 25 23 26 24 27 29 28 30 23
10 8 6 4 7 4 7 5 7 6 14 20 27 21 17 15 21 19 19 20 23 22 18 14 12 13 13 20 27 28 28 27 24 20 20 22 27 24 27 24 25 25 23 25 26 29 27 32 26
13 6 11 8 4 5 7 5 6 7 11 9 26 24 19 20 16 22 20 19 19 19 18 15 12 14 17 18 22 19 22 22 16 20 20 21 18 22 28 26 27 27 25 25 27 32 29 30 34
9 8 9 9 7 4 2 3 7 10 13 12 17 27 25 19 14 24 19 19 15 10 4 2 1 4 5 6 10 16 13 13 14 19 22 17 14 16 18 23 28 30 31 25 25 30 26 32 36
14 4 4 2 5 6 9 8 6 6 18 16 11 28 27 18 24 24 22 20 15 11 8 5 5 4 2 4 5 7 10 12 14 16 16 13 16 17 17 19 21 25 28 29 26 24 26 29 33
4 6 1 1 3 5 11 5 12 8 13 15 14 23 26 19 30 29 24 17 13 8 8 8 8 5 3 3 3 4 4 5 8 9 9 9 7 7 12 18 20 20 21 22 24 23 23 27 29
7 8 5 5 2 7 2 7 13 10 22 18 23 22 22 33 33 26 19 15 9 5 6 5 5 6 6 6 6 5 6 7 9 10 9 8 6 5 6 6 6 7 11 12 13 12 13 15 18
5 5 9 6 1 2 3 5 8 13 15 16 23 29 33 38 30 23 18 12 9 8 5 2 2 3 4 6 7 8 9 11 13 14 15 14 14 13 13 11 10 10 11 14 13 15 16 19 22
10 7 5 2 3 4 1 4 5 10 17 8 18 28 36 34 30 24 18 14 13 11 9 5 3 2 4 7 10 12 13 15 18 18 19 21 21 21 21 21 19 18 17 18 19 22 23 25 28
3 4 6 4 4 5 3 5 4 7 13 5 6 29 35 31 29 25 20 17 13 12 10 8 4 2 1 3 7 13 19 24 26 26 27 28 29 28 27 26 26 25 24 24 24 25 26 27 28
6 8 7 5 3 2 2 5 4 6 10 11 8 24 27 28 27 26 22 17 16 14 14 10 8 7 7 6 7 11 16 20 22 29 30 29 30 29 28 28 29 29 27 27 28 29 27 28 29
Wind_Direction
294 297 305 324 45 70 261 267 251 258 210 226 169 153 208 238 180 187 153 167 168 172 168 170 171 170 166 163 160 157 150 141 134 135 143 146 148 147 142 139 133 129 127 121 120 118 117 118 117
294 302 305 294 93 83 270 244 266 251 151 153 190 224 185 223 172 157 153 172 174 174 171 173 175 175 170 167 165 162 159 151 143 140 148 151 152 152 150 145 138 135 128 122 122 119 114 116 121
295 298 305 121 156 195 201 241 300 311 142 129 157 203 261 212 162 151 154 166 173 178 173 174 176 177 174 171 168 166 165 161 153 149 152 157 157 156 156 151 146 141 132 129 129 125 120 118 120
295 232 229 111 241 256 230 281 301 297 257 137 173 170 223 174 180 186 173 168 175 181 175 174 175 177 178 175 171 170 169 166 161 157 156 160 165 167 164 159 155 148 143 139 136 130 122 114 112
270 247 97 194 257 245 277 280 295 292 183 147 162 201 241 193 180 202 174 175 177 179 175 175 175 177 179 177 175 174 173 171 170 166 164 167 172 175 173 169 164 158 156 151 148 138 124 111 108
242 197 94 223 257 315 285 302 285 273 308 126 148 118 79 231 215 177 173 172 178 178 174 174 176 178 178 178 176 179 177 179 179 175 170 173 180 182 181 180 175 172 172 170 173 162 143 109 107
176 109 210 216 259 311 273 318 32 345 25 354 139 89 124 144 160 157 168 173 180 181 176 176 177 178 178 181 181 182 181 183 185 186 180 182 184 190 190 194 190 190 193 197 202 210 213 98 299
211 115 224 237 168 267 260 308 327 4 18 40 96 152 156 147 151 164 163 174 177 181 181 180 178 179 180 183 185 185 186 187 189 191 190 189 192 194 198 204 205 211 216 224 230 241 250 261 288
188 97 229 239 150 259 310 273 273 69 45 37 18 125 136 145 163 161 158 156 164 180 188 189 186 185 187 187 187 190 192 192 195 195 197 197 197 201 199 208 218 227 235 242 249 255 262 270 293
162 161 222 227 256 313 301 252 124 73 42 28 71 124 135 145 157 142 152 158 170 185 203 203 198 196 193 193 195 195 197 199 200 204 206 205 206 205 207 211 222 235 244 252 259 264 268 274 276
195 185 220 258 237 315 318 227 57 116 64 48 46 148 142 142 128 149 141 169 179 215 212 208 208 205 203 201 199 200 203 207 207 208 211 213 214 211 212 216 224 235 249 261 267 268 270 273 272
210 221 232 268 263 310 327 330 62 91 124 73 49 166 176 176 193 184 169 161 109 27 219 213 219 218 212 210 209 207 211 215 217 217 218 219 220 219 219 222 226 236 240 240 289 277 278 272 260
219 268 264 266 270 272 271 320 145 133 119 112 54 68 201 235 224 208 208 185 216 355 9 216 223 236 237 226 224 219 225 229 228 225 228 228 231 233 234 236 232 229 237 241 261 278 278 295 261
185 233 263 274 263 249 230 196 25 149 23 94 354 48 104 167 236 229 235 230 223 244 254 248 223 231 226 231 233 248 255 246 233 229 228 234 238 246 247 243 244 240 247 254 264 262 274 269 263
243 283 290 246 238 238 229 242 213 225 334 356 322 317 75 120 307 296 226 216 218 194 187 213 219 240 235 237 254 252 253 251 238 238 237 235 236 244 250 250 258 258 256 261 263 270 284 265 284
185 139 243 256 193 239 187 244 244 205 86 322 303 300 301 67 10 307 222 207 192 198 190 172 199 204 228 244 236 250 253 248 249 252 254 252 254 255 257 264 271 261 250 259 261 262 266 273 278
203 214 218 269 191 174 171 227 256 260 294 305 317 300 289 305 21 35 197 194 210 206 208 211 204 213 205 224 229 233 252 256 250 249 253 254 256 257 251 254 273 263 251 245 250 253 260 264 263
187 190 186 232 191 151 169 183 243 236 233 301 300 282 279 284 90 88 120 193 206 208 218 209 202 206 213 224 229 229 233 240 241 244 247 248 249 254 260 250 257 258 255 247 246 249 250 249 254
291 183 211 236 199 156 194 186 195 245 260 262 276 283 243 254 207 128 129 131 140 170 208 206 211 213 216 245 233 225 230 236 241 246 247 246 248 252 257 259 253 260 268 263 251 252 254 257 259
235 229 237 219 230 152 175 196 195 232 255 269 268 267 239 227 167 140 133 130 137 134 143 189 205 218 231 242 238 239 244 242 245 257 260 249 245 250 258 263 255 264 273 259 253 248 248 263 257
229 224 221 199 207 220 151 258 229 239 243 252 255 268 257 246 243 171 150 144 138 142 147 160 180 210 229 228 230 240 246 246 254 262 263 264 256 252 250 251 254 257 283 262 258 246 258 269 257
232 185 232 220 174 213 165 242 246 220 240 208 234 235 244 251 244 175 157 142 141 137 148 159 184 204 219 228 228 227 230 237 238 242 250 259 267 255 253 252 254 267 271 268 252 248 267 256 257
227 213 222 224 224 114 263 133 255 234 249 238 231 229 231 233 212 164 160 145 133 142 140 70 297 241 248 252 228 226 234 240 253 256 261 263 267 271 270 260 255 269 267 261 254 256 256 257 256
222 199 58 278 226 219 213 185 250 196 221 238 224 225 221 221 159 156 146 135 125 109 80 63 49 51 337 268 266 261 264 271 283 278 273 274 270 271 265 266 269 261 261 259 257 259 256 243 256
193 116 227 242 142 208 224 171 233 221 223 217 208 216 209 175 153 141 141 137 127 97 56 70 81 92 60 28 29 32 24 15 20 32 33 31 13 350 282 264 267 270 279 282 276 264 257 255 252
192 148 151 152 206 221 285 205 245 246 243 219 202 203 185 168 155 150 147 135 111 84 86 95 84 83 83 70 62 53 53 43 39 28 22 22 15 359 8 7 338 279 270 265 270 279 291 267 267
161 152 179 118 6 68 263 298 323 4 351 149 145 153 157 159 156 153 148 140 128 116 109 124 107 99 61 29 15 6 6 358 357 353 348 348 340 331 321 314 296 287 277 265 263 266 265 268 275
156 170 100 15 156 216 279 279 248 353 344 240 154 146 151 155 155 156 154 145 142 144 160 175 144 63 20 344 331 331 334 338 336 333 336 335 331 328 322 318 311 301 291 279 270 266 266 268 266
145 126 66 103 146 184 161 262 207 351 332 281 181 150 153 160 158 160 160 156 155 160 168 162 156 159 209 315 321 324 328 332 330 327 325 323 323 323 319 317 312 309 304 301 292 280 277 277 274
153 175 136 125 174 103 171 265 307 359 317 66 112 150 152 158 163 165 159 159 168 173 175 175 191 210 215 242 285 303 313 318 318 322 318 317 319 319 318 318 317 313 310 307 303 300 295 290 284